TimeCST,TemperatureF,Dew PointF,Humidity,Sea Level PressureIn,VisibilityMPH,Wind Direction,Wind SpeedMPH,Gust SpeedMPH,PrecipitationIn,Events,Conditions,WindDirDegrees,DateUTC
12:13 AM,-18.4,-27.4,63,30.13,10.0,NW,3.5,-,N/A,,Overcast,310,2013-01-22 06:13:00
12:33 AM,-16.6,-25.6,64,30.12,10.0,NW,4.6,-,N/A,,Overcast,320,2013-01-22 06:33:00
12:53 AM,-16.6,-25.6,64,30.13,10.0,WNW,4.6,-,N/A,,Overcast,300,2013-01-22 06:53:00
1:13 AM,-16.6,-27.4,58,30.13,10.0,NNW,5.8,-,N/A,,Overcast,330,2013-01-22 07:13:00
1:33 AM,-16.6,-27.4,58,30.14,10.0,NNW,4.6,-,N/A,,Overcast,340,2013-01-22 07:33:00
1:53 AM,-18.4,-27.4,63,30.15,10.0,Calm,Calm,-,N/A,,Scattered Clouds,0,2013-01-22 07:53:00
2:13 AM,-18.4,-29.2,58,30.16,10.0,Calm,Calm,-,N/A,,Clear,0,2013-01-22 08:13:00
2:33 AM,-20.2,-29.2,63,30.16,10.0,NW,3.5,-,N/A,,Clear,310,2013-01-22 08:33:00
2:53 AM,-20.2,-31.0,58,30.17,10.0,NNW,3.5,-,N/A,,Clear,330,2013-01-22 08:53:00
3:13 AM,-20.2,-29.2,63,30.17,10.0,Calm,Calm,-,N/A,,Clear,0,2013-01-22 09:13:00
3:33 AM,-20.2,-29.2,63,30.17,10.0,NNW,3.5,-,N/A,,Clear,340,2013-01-22 09:33:00
3:53 AM,-20.2,-29.2,63,30.17,10.0,Calm,Calm,-,N/A,,Clear,0,2013-01-22 09:53:00
4:13 AM,-22.0,-31.0,63,30.17,10.0,Calm,Calm,-,N/A,,Clear,0,2013-01-22 10:13:00
4:33 AM,-23.8,-32.8,63,30.18,10.0,Calm,Calm,-,N/A,,Clear,0,2013-01-22 10:33:00
4:53 AM,-23.8,-32.8,63,30.18,10.0,Calm,Calm,-,N/A,,Clear,0,2013-01-22 10:53:00
5:13 AM,-25.6,-34.6,63,30.18,10.0,Calm,Calm,-,N/A,,Clear,0,2013-01-22 11:13:00
5:33 AM,-25.6,-34.6,63,30.19,10.0,Calm,Calm,-,N/A,,Clear,0,2013-01-22 11:33:00
5:53 AM,-25.6,-36.4,57,30.20,10.0,Calm,Calm,-,N/A,,Clear,0,2013-01-22 11:53:00
6:13 AM,-25.6,-34.6,63,30.20,10.0,Calm,Calm,-,N/A,,Clear,0,2013-01-22 12:13:00
6:34 AM,-25.6,-34.6,63,30.20,10.0,Calm,Calm,-,N/A,,Clear,0,2013-01-22 12:34:00
6:53 AM,-25.6,-34.6,63,30.19,10.0,Calm,Calm,-,N/A,,Clear,0,2013-01-22 12:53:00
7:13 AM,-25.6,-36.4,57,30.20,10.0,Calm,Calm,-,N/A,,Clear,0,2013-01-22 13:13:00
7:33 AM,-25.6,-34.6,63,30.19,10.0,Calm,Calm,-,N/A,,Clear,0,2013-01-22 13:33:00
7:53 AM,-23.8,-32.8,63,30.19,10.0,Calm,Calm,-,N/A,,Clear,0,2013-01-22 13:53:00
8:13 AM,-22.0,-29.2,69,30.18,10.0,Calm,Calm,-,N/A,,Clear,0,2013-01-22 14:13:00
8:33 AM,-18.4,-27.4,63,30.18,10.0,West,3.5,-,N/A,,Clear,260,2013-01-22 14:33:00
8:53 AM,-14.8,-25.6,58,30.20,10.0,Calm,Calm,-,N/A,,Scattered Clouds,0,2013-01-22 14:53:00
9:13 AM,-14.8,-25.6,58,30.20,10.0,Calm,Calm,-,N/A,,Mostly Cloudy,0,2013-01-22 15:13:00
9:33 AM,-11.2,-23.8,54,30.20,10.0,NNW,4.6,-,N/A,,Scattered Clouds,340,2013-01-22 15:33:00
9:53 AM,-9.4,-23.8,49,30.20,10.0,WNW,3.5,-,N/A,,Clear,300,2013-01-22 15:53:00
10:14 AM,-7.6,-23.8,45,30.21,10.0,WNW,4.6,-,N/A,,Clear,300,2013-01-22 16:14:00
10:33 AM,-7.6,-23.8,45,30.20,10.0,NW,6.9,-,N/A,,Clear,310,2013-01-22 16:33:00
10:53 AM,-4.0,-20.2,46,30.20,10.0,NNW,3.5,-,N/A,,Clear,330,2013-01-22 16:53:00
11:13 AM,-2.2,-22.0,39,30.20,10.0,Calm,Calm,-,N/A,,Clear,0,2013-01-22 17:13:00
11:33 AM,-0.4,-20.2,39,30.20,10.0,Calm,Calm,-,N/A,,Clear,0,2013-01-22 17:33:00
11:53 AM,-0.4,-18.4,43,30.19,10.0,West,4.6,-,N/A,,Clear,260,2013-01-22 17:53:00
12:13 PM,-0.4,-18.4,43,30.19,10.0,West,4.6,-,N/A,,Clear,280,2013-01-22 18:13:00
12:33 PM,1.4,-18.4,39,30.18,10.0,WNW,4.6,-,N/A,,Clear,300,2013-01-22 18:33:00
12:53 PM,3.2,-16.6,39,30.17,10.0,West,4.6,-,N/A,,Clear,280,2013-01-22 18:53:00
1:13 PM,3.2,-16.6,39,30.16,10.0,West,5.8,-,N/A,,Clear,260,2013-01-22 19:13:00
1:33 PM,1.4,-18.4,39,30.16,10.0,West,4.6,-,N/A,,Clear,260,2013-01-22 19:33:00
1:53 PM,3.2,-16.6,39,30.16,10.0,West,4.6,-,N/A,,Clear,280,2013-01-22 19:53:00
2:13 PM,5.0,-16.6,36,30.15,10.0,NW,3.5,-,N/A,,Clear,310,2013-01-22 20:13:00
2:33 PM,3.2,-16.6,39,30.15,10.0,West,4.6,-,N/A,,Clear,270,2013-01-22 20:33:00
2:53 PM,3.2,-16.6,39,30.15,10.0,WNW,3.5,-,N/A,,Clear,290,2013-01-22 20:53:00
3:13 PM,3.2,-16.6,39,30.16,10.0,Calm,Calm,-,N/A,,Clear,0,2013-01-22 21:13:00
3:33 PM,1.4,-16.6,43,30.16,10.0,WNW,4.6,-,N/A,,Clear,300,2013-01-22 21:33:00
3:53 PM,1.4,-16.6,43,30.16,10.0,West,4.6,-,N/A,,Clear,260,2013-01-22 21:53:00
4:13 PM,-0.4,-16.6,46,30.16,10.0,West,3.5,-,N/A,,Clear,260,2013-01-22 22:13:00
4:34 PM,-2.2,-18.4,46,30.16,10.0,West,5.8,-,N/A,,Clear,270,2013-01-22 22:34:00
4:53 PM,-2.2,-18.4,46,30.16,10.0,Calm,Calm,-,N/A,,Clear,0,2013-01-22 22:53:00
5:13 PM,-4.0,-18.4,50,30.16,10.0,Calm,Calm,-,N/A,,Clear,0,2013-01-22 23:13:00
5:33 PM,-4.0,-18.4,50,30.16,10.0,Calm,Calm,-,N/A,,Clear,0,2013-01-22 23:33:00
5:53 PM,-5.8,-18.4,55,30.16,10.0,Calm,Calm,-,N/A,,Clear,0,2013-01-22 23:53:00
6:13 PM,-5.8,-18.4,55,30.15,10.0,Calm,Calm,-,N/A,,Clear,0,2013-01-23 00:13:00
6:34 PM,-7.6,-18.4,59,30.15,10.0,Calm,Calm,-,N/A,,Clear,0,2013-01-23 00:34:00
6:53 PM,-7.6,-18.4,59,30.14,10.0,West,3.5,-,N/A,,Clear,270,2013-01-23 00:53:00
7:13 PM,-5.8,-18.4,55,30.14,10.0,Calm,Calm,-,N/A,,Clear,0,2013-01-23 01:13:00
7:33 PM,-5.8,-18.4,55,30.13,10.0,Calm,Calm,-,N/A,,Clear,0,2013-01-23 01:33:00
7:54 PM,-5.8,-18.4,55,30.12,10.0,Calm,Calm,-,N/A,,Clear,0,2013-01-23 01:54:00
8:13 PM,-5.8,-18.4,55,30.12,10.0,Calm,Calm,-,N/A,,Clear,0,2013-01-23 02:13:00
8:33 PM,-7.6,-18.4,59,30.12,10.0,Calm,Calm,-,N/A,,Clear,0,2013-01-23 02:33:00
8:53 PM,-7.6,-18.4,59,30.12,10.0,Calm,Calm,-,N/A,,Clear,0,2013-01-23 02:53:00
9:14 PM,-7.6,-18.4,59,30.11,10.0,Calm,Calm,-,N/A,,Clear,0,2013-01-23 03:14:00
9:33 PM,-9.4,-18.4,65,30.11,10.0,Calm,Calm,-,N/A,,Clear,0,2013-01-23 03:33:00
9:53 PM,-9.4,-20.2,59,30.11,10.0,Calm,Calm,-,N/A,,Clear,0,2013-01-23 03:53:00
10:13 PM,-9.4,-18.4,65,30.10,10.0,Calm,Calm,-,N/A,,Clear,0,2013-01-23 04:13:00
10:34 PM,-9.4,-18.4,65,30.11,10.0,Calm,Calm,-,N/A,,Clear,0,2013-01-23 04:34:00
10:53 PM,-9.4,-18.4,65,30.10,10.0,Calm,Calm,-,N/A,,Clear,0,2013-01-23 04:53:00
11:13 PM,-9.4,-18.4,65,30.10,10.0,Calm,Calm,-,N/A,,Clear,0,2013-01-23 05:13:00
11:33 PM,-9.4,-18.4,65,30.10,10.0,Calm,Calm,-,N/A,,Clear,0,2013-01-23 05:33:00
11:53 PM,-9.4,-18.4,65,30.09,10.0,Calm,Calm,-,N/A,,Scattered Clouds,0,2013-01-23 05:53:00